Year,Month,Day,Hour,Minute,Value (Times are PST for windspeed in km/hr)
2016,03,13,00,00,5.20
2016,03,13,00,01,4.10
2016,03,13,00,02,3.00
2016,03,13,00,03,2.10
2016,03,13,00,04,2.60
2016,03,13,00,05,3.30
2016,03,13,00,06,3.40
2016,03,13,00,07,4.20
2016,03,13,00,08,4.90
2016,03,13,00,09,4.90
2016,03,13,00,10,4.20
2016,03,13,00,11,3.10
2016,03,13,00,12,1.30
2016,03,13,00,13,1.60
2016,03,13,00,14,1.10
2016,03,13,00,15,1.80
2016,03,13,00,16,2.10
2016,03,13,00,17,2.50
2016,03,13,00,18,1.30
2016,03,13,00,19,0.60
2016,03,13,00,20,0.10
2016,03,13,00,21,0.00
2016,03,13,00,22,0.00
2016,03,13,00,23,0.70
2016,03,13,00,24,1.20
2016,03,13,00,25,1.40
2016,03,13,00,26,1.70
2016,03,13,00,27,1.90
2016,03,13,00,28,3.00
2016,03,13,00,29,3.00
2016,03,13,00,30,3.90
2016,03,13,00,31,4.10
2016,03,13,00,32,4.30
2016,03,13,00,33,4.20
2016,03,13,00,34,3.80
2016,03,13,00,35,3.50
2016,03,13,00,36,3.00
2016,03,13,00,37,1.80
2016,03,13,00,38,0.20
2016,03,13,00,39,0.20
2016,03,13,00,40,1.60
2016,03,13,00,41,1.70
2016,03,13,00,42,1.80
2016,03,13,00,43,1.20
2016,03,13,00,44,1.80
2016,03,13,00,45,2.00
2016,03,13,00,46,0.40
2016,03,13,00,47,0.00
2016,03,13,00,48,0.00
2016,03,13,00,49,0.30
2016,03,13,00,50,2.60
2016,03,13,00,51,2.30
2016,03,13,00,52,0.90
2016,03,13,00,53,0.10
2016,03,13,00,54,0.10
2016,03,13,00,55,4.40
2016,03,13,00,56,2.80
2016,03,13,00,57,5.40
2016,03,13,00,58,4.40
2016,03,13,00,59,6.90
2016,03,13,01,00,11.30
2016,03,13,01,01,11.20
2016,03,13,01,02,10.80
2016,03,13,01,03,10.10
2016,03,13,01,04,13.90
2016,03,13,01,05,12.00
2016,03,13,01,06,12.80
2016,03,13,01,07,13.50
2016,03,13,01,08,15.00
2016,03,13,01,09,10.00
2016,03,13,01,10,13.70
2016,03,13,01,11,10.30
2016,03,13,01,12,9.10
2016,03,13,01,13,14.60
2016,03,13,01,14,7.70
2016,03,13,01,15,7.20
2016,03,13,01,16,8.90
2016,03,13,01,17,14.60
2016,03,13,01,18,11.80
2016,03,13,01,19,15.30
2016,03,13,01,20,12.80
2016,03,13,01,21,12.10
2016,03,13,01,22,11.50
2016,03,13,01,23,13.00
2016,03,13,01,24,13.60
2016,03,13,01,25,14.40
2016,03,13,01,26,10.30
2016,03,13,01,27,7.60
2016,03,13,01,28,9.40
2016,03,13,01,29,8.60
2016,03,13,01,30,6.80
2016,03,13,01,31,13.80
2016,03,13,01,32,6.80
2016,03,13,01,33,4.80
2016,03,13,01,34,7.40
2016,03,13,01,35,4.80
2016,03,13,01,36,8.50
2016,03,13,01,37,5.60
2016,03,13,01,38,6.40
2016,03,13,01,39,7.30
2016,03,13,01,40,7.30
2016,03,13,01,41,5.40
2016,03,13,01,42,6.40
2016,03,13,01,43,5.10
2016,03,13,01,44,6.10
2016,03,13,01,45,6.70
2016,03,13,01,46,6.30
2016,03,13,01,47,5.60
2016,03,13,01,48,7.40
2016,03,13,01,49,8.90
2016,03,13,01,50,7.90
2016,03,13,01,51,4.20
2016,03,13,01,52,4.80
2016,03,13,01,53,8.00
2016,03,13,01,54,5.10
2016,03,13,01,55,6.40
2016,03,13,01,56,5.50
2016,03,13,01,57,8.20
2016,03,13,01,58,5.80
2016,03,13,01,59,9.50
2016,03,13,03,00,4.70
2016,03,13,03,01,6.20
2016,03,13,03,02,6.10
2016,03,13,03,03,6.20
2016,03,13,03,04,5.20
2016,03,13,03,05,5.50
2016,03,13,03,06,5.10
2016,03,13,03,07,4.70
2016,03,13,03,08,5.30
2016,03,13,03,09,5.70
2016,03,13,03,10,6.30
2016,03,13,03,11,3.90
2016,03,13,03,12,4.20
2016,03,13,03,13,6.80
2016,03,13,03,14,7.80
2016,03,13,03,15,4.30
2016,03,13,03,16,4.90
2016,03,13,03,17,7.20
2016,03,13,03,18,7.70
2016,03,13,03,19,8.40
2016,03,13,03,20,8.40
2016,03,13,03,21,8.00
2016,03,13,03,22,6.40
2016,03,13,03,23,4.90
2016,03,13,03,24,7.40
2016,03,13,03,25,8.90
2016,03,13,03,26,8.10
2016,03,13,03,27,6.80
2016,03,13,03,28,8.00
2016,03,13,03,29,17.50
2016,03,13,03,30,14.40
2016,03,13,03,31,13.00
2016,03,13,03,32,12.60
2016,03,13,03,33,10.80
2016,03,13,03,34,8.90
2016,03,13,03,35,11.00
2016,03,13,03,36,9.70
2016,03,13,03,37,15.50
2016,03,13,03,38,10.50
2016,03,13,03,39,8.80
2016,03,13,03,40,14.70
2016,03,13,03,41,14.00
2016,03,13,03,42,13.90
2016,03,13,03,43,16.30
2016,03,13,03,44,12.20
2016,03,13,03,45,14.80
2016,03,13,03,46,17.50
2016,03,13,03,47,19.90
2016,03,13,03,48,18.00
2016,03,13,03,49,11.60
2016,03,13,03,50,15.30
2016,03,13,03,51,19.30
2016,03,13,03,52,12.60
2016,03,13,03,53,20.10
2016,03,13,03,54,17.10
2016,03,13,03,55,14.00
2016,03,13,03,56,11.50
2016,03,13,03,57,15.60
2016,03,13,03,58,18.20
2016,03,13,03,59,17.50
2016,03,13,04,00,20.10
2016,03,13,04,01,18.80
2016,03,13,04,02,23.40
2016,03,13,04,03,22.00
2016,03,13,04,04,16.20
2016,03,13,04,05,13.80
2016,03,13,04,06,21.50
2016,03,13,04,07,23.30
2016,03,13,04,08,22.30
2016,03,13,04,09,12.00
2016,03,13,04,10,18.80
2016,03,13,04,11,20.20
2016,03,13,04,12,21.60
2016,03,13,04,13,20.40
2016,03,13,04,14,23.50
2016,03,13,04,15,17.90
2016,03,13,04,16,16.30
2016,03,13,04,17,21.20
2016,03,13,04,18,17.00
2016,03,13,04,19,22.30
2016,03,13,04,20,15.70
2016,03,13,04,21,20.10
2016,03,13,04,22,20.90
2016,03,13,04,23,25.30
2016,03,13,04,24,15.90
2016,03,13,04,25,24.90
2016,03,13,04,26,29.40
2016,03,13,04,27,22.90
2016,03,13,04,28,31.70
2016,03,13,04,29,28.20
2016,03,13,04,30,29.90
2016,03,13,04,31,29.40
2016,03,13,04,32,26.00
2016,03,13,04,33,24.00
2016,03,13,04,34,22.00
2016,03,13,04,35,20.00
2016,03,13,04,36,27.20
2016,03,13,04,37,21.30
2016,03,13,04,38,25.10
2016,03,13,04,39,23.50
2016,03,13,04,40,33.40
2016,03,13,04,41,22.00
2016,03,13,04,42,18.00
2016,03,13,04,43,27.20
2016,03,13,04,44,24.20
2016,03,13,04,45,24.60
2016,03,13,04,46,22.20
2016,03,13,04,47,20.10
2016,03,13,04,48,22.40
2016,03,13,04,49,22.20
2016,03,13,04,50,22.60
2016,03,13,04,51,26.50
2016,03,13,04,52,17.30
2016,03,13,04,53,25.60
2016,03,13,04,54,30.10
2016,03,13,04,55,24.80
2016,03,13,04,56,20.20
2016,03,13,04,57,15.40
2016,03,13,04,58,14.50
2016,03,13,04,59,20.40
2016,03,13,05,00,22.00
2016,03,13,05,01,31.40
2016,03,13,05,02,26.70
2016,03,13,05,03,21.90
2016,03,13,05,04,28.30
2016,03,13,05,05,21.70
2016,03,13,05,06,19.70
2016,03,13,05,07,26.50
2016,03,13,05,08,32.90
2016,03,13,05,09,28.90
2016,03,13,05,10,25.70
2016,03,13,05,11,30.60
2016,03,13,05,12,25.80
2016,03,13,05,13,22.10
2016,03,13,05,14,32.70
2016,03,13,05,15,27.20
2016,03,13,05,16,22.40
2016,03,13,05,17,26.80
2016,03,13,05,18,19.90
2016,03,13,05,19,24.40
2016,03,13,05,20,26.90
2016,03,13,05,21,25.50
2016,03,13,05,22,24.60
2016,03,13,05,23,30.30
2016,03,13,05,24,26.60
2016,03,13,05,25,19.50
2016,03,13,05,26,19.30
2016,03,13,05,27,33.80
2016,03,13,05,28,23.70
2016,03,13,05,29,31.00
2016,03,13,05,30,27.00
2016,03,13,05,31,29.60
2016,03,13,05,32,26.20
2016,03,13,05,33,25.70
2016,03,13,05,34,24.80
2016,03,13,05,35,28.50
2016,03,13,05,36,24.00
2016,03,13,05,37,19.90
2016,03,13,05,38,28.20
2016,03,13,05,39,26.80
2016,03,13,05,40,31.30
2016,03,13,05,41,34.00
2016,03,13,05,42,33.10
2016,03,13,05,43,21.10
2016,03,13,05,44,31.90
2016,03,13,05,45,31.60
2016,03,13,05,46,25.30
2016,03,13,05,47,24.80
2016,03,13,05,48,30.30
2016,03,13,05,49,28.00
2016,03,13,05,50,19.20
2016,03,13,05,51,19.90
2016,03,13,05,52,17.00
2016,03,13,05,53,18.30
2016,03,13,05,54,24.30
2016,03,13,05,55,19.90
2016,03,13,05,56,16.40
2016,03,13,05,57,23.10
2016,03,13,05,58,22.90
2016,03,13,05,59,28.80
2016,03,13,06,00,26.30
2016,03,13,06,01,31.30
2016,03,13,06,02,17.90
2016,03,13,06,03,26.20
2016,03,13,06,04,30.60
2016,03,13,06,05,27.20
2016,03,13,06,06,30.50
2016,03,13,06,07,32.50
2016,03,13,06,08,26.90
2016,03,13,06,09,27.80
2016,03,13,06,10,27.90
2016,03,13,06,11,19.10
2016,03,13,06,12,25.10
2016,03,13,06,13,22.70
2016,03,13,06,14,24.40
2016,03,13,06,15,19.60
2016,03,13,06,16,23.00
2016,03,13,06,17,26.40
2016,03,13,06,18,22.00
2016,03,13,06,19,25.30
2016,03,13,06,20,23.60
2016,03,13,06,21,32.90
2016,03,13,06,22,32.10
2016,03,13,06,23,27.80
2016,03,13,06,24,23.80
2016,03,13,06,25,23.10
2016,03,13,06,26,22.40
2016,03,13,06,27,31.70
2016,03,13,06,28,27.10
2016,03,13,06,29,18.60
2016,03,13,06,30,26.60
2016,03,13,06,31,20.40
2016,03,13,06,32,21.70
2016,03,13,06,33,21.40
2016,03,13,06,34,25.40
2016,03,13,06,35,21.60
2016,03,13,06,36,20.80
2016,03,13,06,37,23.50
2016,03,13,06,38,29.10
2016,03,13,06,39,25.00
2016,03,13,06,40,25.70
2016,03,13,06,41,21.10
2016,03,13,06,42,28.20
2016,03,13,06,43,24.90
2016,03,13,06,44,25.90
2016,03,13,06,45,25.70
2016,03,13,06,46,21.50
2016,03,13,06,47,21.60
2016,03,13,06,48,32.00
2016,03,13,06,49,28.60
2016,03,13,06,50,32.20
2016,03,13,06,51,30.30
2016,03,13,06,52,31.50
2016,03,13,06,53,20.20
2016,03,13,06,54,20.90
2016,03,13,06,55,31.50
2016,03,13,06,56,32.30
2016,03,13,06,57,26.90
2016,03,13,06,58,21.30
2016,03,13,06,59,24.30
2016,03,13,07,00,22.20
2016,03,13,07,01,33.40
2016,03,13,07,02,24.80
2016,03,13,07,03,25.00
2016,03,13,07,04,34.30
2016,03,13,07,05,27.00
2016,03,13,07,06,17.90
2016,03,13,07,07,20.80
2016,03,13,07,08,27.80
2016,03,13,07,09,19.90
2016,03,13,07,10,32.00
2016,03,13,07,11,28.20
2016,03,13,07,12,31.00
2016,03,13,07,13,30.80
2016,03,13,07,14,18.00
2016,03,13,07,15,21.70
2016,03,13,07,16,24.10
2016,03,13,07,17,23.30
2016,03,13,07,18,15.50
2016,03,13,07,19,24.10
2016,03,13,07,20,21.30
2016,03,13,07,21,23.00
2016,03,13,07,22,21.20
2016,03,13,07,23,23.00
2016,03,13,07,24,16.30
2016,03,13,07,25,23.20
2016,03,13,07,26,21.20
2016,03,13,07,27,26.30
2016,03,13,07,28,24.50
2016,03,13,07,29,18.90
2016,03,13,07,30,24.10
2016,03,13,07,31,19.80
2016,03,13,07,32,25.10
2016,03,13,07,33,19.60
2016,03,13,07,34,23.50
2016,03,13,07,35,25.50
2016,03,13,07,36,36.30
2016,03,13,07,37,29.00
2016,03,13,07,38,22.10
2016,03,13,07,39,29.30
2016,03,13,07,40,25.00
2016,03,13,07,41,29.10
2016,03,13,07,42,23.00
2016,03,13,07,43,22.90
2016,03,13,07,44,19.80
2016,03,13,07,45,37.80
2016,03,13,07,46,22.30
2016,03,13,07,47,26.30
2016,03,13,07,48,25.10
2016,03,13,07,49,27.00
2016,03,13,07,50,23.70
2016,03,13,07,51,26.90
2016,03,13,07,52,24.80
2016,03,13,07,53,22.30
2016,03,13,07,54,26.30
2016,03,13,07,55,26.30
2016,03,13,07,56,25.50
2016,03,13,07,57,27.00
2016,03,13,07,58,26.40
2016,03,13,07,59,30.80
2016,03,13,08,00,27.50
2016,03,13,08,01,29.70
2016,03,13,08,02,33.00
2016,03,13,08,03,32.90
2016,03,13,08,04,31.30
2016,03,13,08,05,21.60
2016,03,13,08,06,14.10
2016,03,13,08,07,22.50
2016,03,13,08,08,23.50
2016,03,13,08,09,19.60
2016,03,13,08,10,21.70
2016,03,13,08,11,17.50
2016,03,13,08,12,22.80
2016,03,13,08,13,27.50
2016,03,13,08,14,23.00
2016,03,13,08,15,25.70
2016,03,13,08,16,25.80
2016,03,13,08,17,23.80
2016,03,13,08,18,24.30
2016,03,13,08,19,19.80
2016,03,13,08,20,19.00
2016,03,13,08,21,22.90
2016,03,13,08,22,17.90
2016,03,13,08,23,19.50
2016,03,13,08,24,26.80
2016,03,13,08,25,17.90
2016,03,13,08,26,21.80
2016,03,13,08,27,17.50
2016,03,13,08,28,21.70
2016,03,13,08,29,16.50
2016,03,13,08,30,17.10
2016,03,13,08,31,21.20
2016,03,13,08,32,20.60
2016,03,13,08,33,20.50
2016,03,13,08,34,25.80
2016,03,13,08,35,20.00
2016,03,13,08,36,18.50
2016,03,13,08,37,21.60
2016,03,13,08,38,24.90
2016,03,13,08,39,19.10
2016,03,13,08,40,22.40
2016,03,13,08,41,20.80
2016,03,13,08,42,18.70
2016,03,13,08,43,20.00
2016,03,13,08,44,22.40
2016,03,13,08,45,22.10
2016,03,13,08,46,20.90
2016,03,13,08,47,16.70
2016,03,13,08,48,12.10
2016,03,13,08,49,19.80
2016,03,13,08,50,20.60
2016,03,13,08,51,21.60
2016,03,13,08,52,19.50
2016,03,13,08,53,20.10
2016,03,13,08,54,22.10
2016,03,13,08,55,16.40
2016,03,13,08,56,20.10
2016,03,13,08,57,15.90
2016,03,13,08,58,21.80
2016,03,13,08,59,21.60
2016,03,13,09,00,17.60
2016,03,13,09,01,23.00
2016,03,13,09,02,22.90
2016,03,13,09,03,16.70
2016,03,13,09,04,15.40
2016,03,13,09,05,22.30
2016,03,13,09,06,20.40
2016,03,13,09,07,24.10
2016,03,13,09,08,24.60
2016,03,13,09,09,17.70
2016,03,13,09,10,21.30
2016,03,13,09,11,23.20
2016,03,13,09,12,25.00
2016,03,13,09,13,26.00
2016,03,13,09,14,23.60
2016,03,13,09,15,30.30
2016,03,13,09,16,20.20
2016,03,13,09,17,12.20
2016,03,13,09,18,21.50
2016,03,13,09,19,20.80
2016,03,13,09,20,13.20
2016,03,13,09,21,19.50
2016,03,13,09,22,25.70
2016,03,13,09,23,22.50
2016,03,13,09,24,16.90
2016,03,13,09,25,18.50
2016,03,13,09,26,26.10
2016,03,13,09,27,15.90
2016,03,13,09,28,20.30
2016,03,13,09,29,23.10
2016,03,13,09,30,19.60
2016,03,13,09,31,19.60
2016,03,13,09,32,18.80
2016,03,13,09,33,23.30
2016,03,13,09,34,27.00
2016,03,13,09,35,35.20
2016,03,13,09,36,32.90
2016,03,13,09,37,32.50
2016,03,13,09,38,31.10
2016,03,13,09,39,33.60
2016,03,13,09,40,31.50
2016,03,13,09,41,34.30
2016,03,13,09,42,36.30
2016,03,13,09,43,31.80
2016,03,13,09,44,32.60
2016,03,13,09,45,31.40
2016,03,13,09,46,35.10
2016,03,13,09,47,23.70
2016,03,13,09,48,24.80
2016,03,13,09,49,19.30
2016,03,13,09,50,20.70
2016,03,13,09,51,21.00
2016,03,13,09,52,19.70
2016,03,13,09,53,19.50
2016,03,13,09,54,23.50
2016,03,13,09,55,15.40
2016,03,13,09,56,24.90
2016,03,13,09,57,23.10
2016,03,13,09,58,24.80
2016,03,13,09,59,24.00
2016,03,13,10,00,24.90
2016,03,13,10,01,21.40
2016,03,13,10,02,15.30
2016,03,13,10,03,24.10
2016,03,13,10,04,22.80
2016,03,13,10,05,22.40
2016,03,13,10,06,25.20
2016,03,13,10,07,24.30
2016,03,13,10,08,20.70
2016,03,13,10,09,17.70
2016,03,13,10,10,17.50
2016,03,13,10,11,21.10
2016,03,13,10,12,24.60
2016,03,13,10,13,27.40
2016,03,13,10,14,21.30
2016,03,13,10,15,14.70
2016,03,13,10,16,21.60
2016,03,13,10,17,27.60
2016,03,13,10,18,16.80
2016,03,13,10,19,17.20
2016,03,13,10,20,26.40
2016,03,13,10,21,21.10
2016,03,13,10,22,13.40
2016,03,13,10,23,20.20
2016,03,13,10,24,18.10
2016,03,13,10,25,18.90
2016,03,13,10,26,17.20
2016,03,13,10,27,24.90
2016,03,13,10,28,13.80
2016,03,13,10,29,17.40
2016,03,13,10,30,18.60
2016,03,13,10,31,22.00
2016,03,13,10,32,25.70
2016,03,13,10,33,17.90
2016,03,13,10,34,21.50
2016,03,13,10,35,22.00
2016,03,13,10,36,21.10
2016,03,13,10,37,22.20
2016,03,13,10,38,20.80
2016,03,13,10,39,22.20
2016,03,13,10,40,19.30
2016,03,13,10,41,17.20
2016,03,13,10,42,11.80
2016,03,13,10,43,20.70
2016,03,13,10,44,21.80
2016,03,13,10,45,20.10
2016,03,13,10,46,15.30
2016,03,13,10,47,16.70
2016,03,13,10,48,20.20
2016,03,13,10,49,31.80
2016,03,13,10,50,28.80
2016,03,13,10,51,19.40
2016,03,13,10,52,27.60
2016,03,13,10,53,22.90
2016,03,13,10,54,26.10
2016,03,13,10,55,26.00
2016,03,13,10,56,24.50
2016,03,13,10,57,20.80
2016,03,13,10,58,26.30
2016,03,13,10,59,19.40
2016,03,13,11,00,18.10
2016,03,13,11,01,16.40
2016,03,13,11,02,21.60
2016,03,13,11,03,22.80
2016,03,13,11,04,20.60
2016,03,13,11,05,18.70
2016,03,13,11,06,20.70
2016,03,13,11,07,22.30
2016,03,13,11,08,20.00
2016,03,13,11,09,21.80
2016,03,13,11,10,16.70
2016,03,13,11,11,19.70
2016,03,13,11,12,18.80
2016,03,13,11,13,24.10
2016,03,13,11,14,18.70
2016,03,13,11,15,22.00
2016,03,13,11,16,20.10
2016,03,13,11,17,25.60
2016,03,13,11,18,24.90
2016,03,13,11,19,24.30
2016,03,13,11,20,21.10
2016,03,13,11,21,24.30
2016,03,13,11,22,20.30
2016,03,13,11,23,21.30
2016,03,13,11,24,30.80
2016,03,13,11,25,26.20
2016,03,13,11,26,27.00
2016,03,13,11,27,24.60
2016,03,13,11,28,24.50
2016,03,13,11,29,29.90
2016,03,13,11,30,21.60
2016,03,13,11,31,32.30
2016,03,13,11,32,18.20
2016,03,13,11,33,23.90
2016,03,13,11,34,31.00
2016,03,13,11,35,29.40
2016,03,13,11,36,32.60
2016,03,13,11,37,26.90
2016,03,13,11,38,25.10
2016,03,13,11,39,21.60
2016,03,13,11,40,24.50
2016,03,13,11,41,31.50
2016,03,13,11,42,28.90
2016,03,13,11,43,25.40
2016,03,13,11,44,25.90
2016,03,13,11,45,22.80
2016,03,13,11,46,28.40
2016,03,13,11,47,22.90
2016,03,13,11,48,25.70
2016,03,13,11,49,23.80
2016,03,13,11,50,32.60
2016,03,13,11,51,31.60
2016,03,13,11,52,22.20
2016,03,13,11,53,32.00
2016,03,13,11,54,19.30
2016,03,13,11,55,26.70
2016,03,13,11,56,22.00
2016,03,13,11,57,23.60
2016,03,13,11,58,20.50
2016,03,13,11,59,22.70
2016,03,13,12,00,22.10
2016,03,13,12,01,22.30
2016,03,13,12,02,30.90
2016,03,13,12,03,24.00
2016,03,13,12,04,25.90
2016,03,13,12,05,22.50
2016,03,13,12,06,24.50
2016,03,13,12,07,19.10
2016,03,13,12,08,25.50
2016,03,13,12,09,30.40
2016,03,13,12,10,24.20
2016,03,13,12,11,21.10
2016,03,13,12,12,26.60
2016,03,13,12,13,17.00
2016,03,13,12,14,25.40
2016,03,13,12,15,26.80
2016,03,13,12,16,27.20
2016,03,13,12,17,28.20
2016,03,13,12,18,28.20
2016,03,13,12,19,22.00
2016,03,13,12,20,30.40
2016,03,13,12,21,30.40
2016,03,13,12,22,31.70
2016,03,13,12,23,30.00
2016,03,13,12,24,29.50
2016,03,13,12,25,31.20
2016,03,13,12,26,27.00
2016,03,13,12,27,30.10
2016,03,13,12,28,30.70
2016,03,13,12,29,29.80
2016,03,13,12,30,31.90
2016,03,13,12,31,34.40
2016,03,13,12,32,32.00
2016,03,13,12,33,30.10
2016,03,13,12,34,22.30
2016,03,13,12,35,24.50
2016,03,13,12,36,25.80
2016,03,13,12,37,22.60
2016,03,13,12,38,26.60
2016,03,13,12,39,33.90
2016,03,13,12,40,26.30
2016,03,13,12,41,28.30
2016,03,13,12,42,29.20
2016,03,13,12,43,20.70
2016,03,13,12,44,23.50
2016,03,13,12,45,21.90
2016,03,13,12,46,24.50
2016,03,13,12,47,16.30
2016,03,13,12,48,24.20
2016,03,13,12,49,25.00
2016,03,13,12,50,27.80
2016,03,13,12,51,23.80
2016,03,13,12,52,30.70
2016,03,13,12,53,33.60
2016,03,13,12,54,37.60
2016,03,13,12,55,28.30
2016,03,13,12,56,26.70
2016,03,13,12,57,32.30
2016,03,13,12,58,28.00
2016,03,13,12,59,22.30
2016,03,13,13,00,21.00
2016,03,13,13,01,18.10
2016,03,13,13,02,20.90
2016,03,13,13,03,30.30
2016,03,13,13,04,18.30
2016,03,13,13,05,22.20
2016,03,13,13,06,26.20
2016,03,13,13,07,18.10
2016,03,13,13,08,15.80
2016,03,13,13,09,23.60
2016,03,13,13,10,26.00
2016,03,13,13,11,28.30
2016,03,13,13,12,25.80
2016,03,13,13,13,30.30
2016,03,13,13,14,22.00
2016,03,13,13,15,24.40
2016,03,13,13,16,18.10
2016,03,13,13,17,27.40
2016,03,13,13,18,26.80
2016,03,13,13,19,31.30
2016,03,13,13,20,21.30
2016,03,13,13,21,24.50
2016,03,13,13,22,28.20
2016,03,13,13,23,17.70
2016,03,13,13,24,18.40
2016,03,13,13,25,25.90
2016,03,13,13,26,24.90
2016,03,13,13,27,26.80
2016,03,13,13,28,23.90
2016,03,13,13,29,23.30
2016,03,13,13,30,16.60
2016,03,13,13,31,23.40
2016,03,13,13,32,17.10
2016,03,13,13,33,24.20
2016,03,13,13,34,23.00
2016,03,13,13,35,24.50
2016,03,13,13,36,26.10
2016,03,13,13,37,24.30
2016,03,13,13,38,23.50
2016,03,13,13,39,19.10
2016,03,13,13,40,24.90
2016,03,13,13,41,24.90
2016,03,13,13,42,21.30
2016,03,13,13,43,23.40
2016,03,13,13,44,27.50
2016,03,13,13,45,18.10
2016,03,13,13,46,26.60
2016,03,13,13,47,16.30
2016,03,13,13,48,21.60
2016,03,13,13,49,20.80
2016,03,13,13,50,23.00
2016,03,13,13,51,15.90
2016,03,13,13,52,34.90
2016,03,13,13,53,27.40
2016,03,13,13,54,17.20
2016,03,13,13,55,24.20
2016,03,13,13,56,27.30
2016,03,13,13,57,20.90
2016,03,13,13,58,20.20
2016,03,13,13,59,22.90
2016,03,13,14,00,27.80
2016,03,13,14,01,25.80
2016,03,13,14,02,23.50
2016,03,13,14,03,26.70
2016,03,13,14,04,27.60
2016,03,13,14,05,26.60
2016,03,13,14,06,31.80
2016,03,13,14,07,24.10
2016,03,13,14,08,18.40
2016,03,13,14,09,25.70
2016,03,13,14,10,24.10
2016,03,13,14,11,28.50
2016,03,13,14,12,28.90
2016,03,13,14,13,25.70
2016,03,13,14,14,25.60
2016,03,13,14,15,29.00
2016,03,13,14,16,27.50
2016,03,13,14,17,26.20
2016,03,13,14,18,23.90
2016,03,13,14,19,26.20
2016,03,13,14,20,21.80
2016,03,13,14,21,38.50
2016,03,13,14,22,26.00
2016,03,13,14,23,28.60
2016,03,13,14,24,27.00
2016,03,13,14,25,26.80
2016,03,13,14,26,39.70
2016,03,13,14,27,38.20
2016,03,13,14,28,34.40
2016,03,13,14,29,28.00
2016,03,13,14,30,24.20
2016,03,13,14,31,32.70
2016,03,13,14,32,33.20
2016,03,13,14,33,26.60
2016,03,13,14,34,29.40
2016,03,13,14,35,29.50
2016,03,13,14,36,29.40
2016,03,13,14,37,36.10
2016,03,13,14,38,23.60
2016,03,13,14,39,24.80
2016,03,13,14,40,32.30
2016,03,13,14,41,29.00
2016,03,13,14,42,36.50
2016,03,13,14,43,33.90
2016,03,13,14,44,26.30
2016,03,13,14,45,31.20
2016,03,13,14,46,37.90
2016,03,13,14,47,27.40
2016,03,13,14,48,39.80
2016,03,13,14,49,40.60
2016,03,13,14,50,32.30
2016,03,13,14,51,30.30
2016,03,13,14,52,35.90
2016,03,13,14,53,31.90
2016,03,13,14,54,30.70
2016,03,13,14,55,36.30
2016,03,13,14,56,30.30
2016,03,13,14,57,32.10
2016,03,13,14,58,26.30
2016,03,13,14,59,34.20
2016,03,13,15,00,35.90
2016,03,13,15,01,32.80
2016,03,13,15,02,30.20
2016,03,13,15,03,36.40
2016,03,13,15,04,32.20
2016,03,13,15,05,26.20
2016,03,13,15,06,24.90
2016,03,13,15,07,31.70
2016,03,13,15,08,37.40
2016,03,13,15,09,38.80
2016,03,13,15,10,34.20
2016,03,13,15,11,36.90
2016,03,13,15,12,34.90
2016,03,13,15,13,31.10
2016,03,13,15,14,37.20
2016,03,13,15,15,36.30
2016,03,13,15,16,35.40
2016,03,13,15,17,33.10
2016,03,13,15,18,29.40
2016,03,13,15,19,36.90
2016,03,13,15,20,26.20
2016,03,13,15,21,36.90
2016,03,13,15,22,35.90
2016,03,13,15,23,39.50
2016,03,13,15,24,32.70
2016,03,13,15,25,32.10
2016,03,13,15,26,29.20
2016,03,13,15,27,36.20
2016,03,13,15,28,36.00
2016,03,13,15,29,33.60
2016,03,13,15,30,33.40
2016,03,13,15,31,33.20
2016,03,13,15,32,31.10
2016,03,13,15,33,26.60
2016,03,13,15,34,23.00
2016,03,13,15,35,26.60
2016,03,13,15,36,33.40
2016,03,13,15,37,26.20
2016,03,13,15,38,32.30
2016,03,13,15,39,30.30
2016,03,13,15,40,31.10
2016,03,13,15,41,31.10
2016,03,13,15,42,25.70
2016,03,13,15,43,29.30
2016,03,13,15,44,32.70
2016,03,13,15,45,26.10
2016,03,13,15,46,23.00
2016,03,13,15,47,24.60
2016,03,13,15,48,26.60
2016,03,13,15,49,24.20
2016,03,13,15,50,28.00
2016,03,13,15,51,28.50
2016,03,13,15,52,28.00
2016,03,13,15,53,27.70
2016,03,13,15,54,28.40
2016,03,13,15,55,24.10
2016,03,13,15,56,29.10
2016,03,13,15,57,27.40
2016,03,13,15,58,27.90
2016,03,13,15,59,29.10
2016,03,13,16,00,27.00
2016,03,13,16,01,23.30
2016,03,13,16,02,27.80
2016,03,13,16,03,22.80
2016,03,13,16,04,25.50
2016,03,13,16,05,21.90
2016,03,13,16,06,22.30
2016,03,13,16,07,26.30
2016,03,13,16,08,24.00
2016,03,13,16,09,24.30
2016,03,13,16,10,23.00
2016,03,13,16,11,22.40
2016,03,13,16,12,24.60
2016,03,13,16,13,30.20
2016,03,13,16,14,31.10
2016,03,13,16,15,28.20
2016,03,13,16,16,22.20
2016,03,13,16,17,23.60
2016,03,13,16,18,27.20
2016,03,13,16,19,25.80
2016,03,13,16,20,23.90
2016,03,13,16,21,27.20
2016,03,13,16,22,32.20
2016,03,13,16,23,30.30
2016,03,13,16,24,32.70
2016,03,13,16,25,27.30
2016,03,13,16,26,29.30
2016,03,13,16,27,24.00
2016,03,13,16,28,27.50
2016,03,13,16,29,30.80
2016,03,13,16,30,25.80
2016,03,13,16,31,27.00
2016,03,13,16,32,23.10
2016,03,13,16,33,26.40
2016,03,13,16,34,33.30
2016,03,13,16,35,30.50
2016,03,13,16,36,33.30
2016,03,13,16,37,28.00
2016,03,13,16,38,26.30
2016,03,13,16,39,28.70
2016,03,13,16,40,25.20
2016,03,13,16,41,26.20
2016,03,13,16,42,27.90
2016,03,13,16,43,29.50
2016,03,13,16,44,29.20
2016,03,13,16,45,32.70
2016,03,13,16,46,34.10
2016,03,13,16,47,37.00
2016,03,13,16,48,34.30
2016,03,13,16,49,36.00
2016,03,13,16,50,33.30
2016,03,13,16,51,41.00
2016,03,13,16,52,37.40
2016,03,13,16,53,33.80
2016,03,13,16,54,33.30
2016,03,13,16,55,30.50
2016,03,13,16,56,30.70
2016,03,13,16,57,27.50
2016,03,13,16,58,41.90
2016,03,13,16,59,35.10
2016,03,13,17,00,35.30
2016,03,13,17,01,33.90
2016,03,13,17,02,39.00
2016,03,13,17,03,38.10
2016,03,13,17,04,35.50
2016,03,13,17,05,36.90
2016,03,13,17,06,38.90
2016,03,13,17,07,33.90
2016,03,13,17,08,40.30
2016,03,13,17,09,40.60
2016,03,13,17,10,29.30
2016,03,13,17,11,27.10
2016,03,13,17,12,26.80
2016,03,13,17,13,32.80
2016,03,13,17,14,26.80
2016,03,13,17,15,26.10
2016,03,13,17,16,28.20
2016,03,13,17,17,34.90
2016,03,13,17,18,41.70
2016,03,13,17,19,40.70
2016,03,13,17,20,37.70
2016,03,13,17,21,39.20
2016,03,13,17,22,42.50
2016,03,13,17,23,31.60
2016,03,13,17,24,27.90
2016,03,13,17,25,30.40
2016,03,13,17,26,32.30
2016,03,13,17,27,38.60
2016,03,13,17,28,34.50
2016,03,13,17,29,46.30
2016,03,13,17,30,37.70
2016,03,13,17,31,31.00
2016,03,13,17,32,52.80
2016,03,13,17,33,44.70
2016,03,13,17,34,43.30
2016,03,13,17,35,40.50
2016,03,13,17,36,34.90
2016,03,13,17,37,36.70
2016,03,13,17,38,35.50
2016,03,13,17,39,31.10
2016,03,13,17,40,34.80
2016,03,13,17,41,31.40
2016,03,13,17,42,32.10
2016,03,13,17,43,32.40
2016,03,13,17,44,33.50
2016,03,13,17,45,36.90
2016,03,13,17,46,36.80
2016,03,13,17,47,33.90
2016,03,13,17,48,31.70
2016,03,13,17,49,33.20
2016,03,13,17,50,26.40
2016,03,13,17,51,34.60
2016,03,13,17,52,33.50
2016,03,13,17,53,38.50
2016,03,13,17,54,36.40
2016,03,13,17,55,42.50
2016,03,13,17,56,31.20
2016,03,13,17,57,29.70
2016,03,13,17,58,26.10
2016,03,13,17,59,16.40
2016,03,13,18,00,24.70
2016,03,13,18,01,32.20
2016,03,13,18,02,30.30
2016,03,13,18,03,27.90
2016,03,13,18,04,37.50
2016,03,13,18,05,38.20
2016,03,13,18,06,27.50
2016,03,13,18,07,21.60
2016,03,13,18,08,27.40
2016,03,13,18,09,27.30
2016,03,13,18,10,23.70
2016,03,13,18,11,25.30
2016,03,13,18,12,35.20
2016,03,13,18,13,29.40
2016,03,13,18,14,27.80
2016,03,13,18,15,27.60
2016,03,13,18,16,25.00
2016,03,13,18,17,40.20
2016,03,13,18,18,31.50
2016,03,13,18,19,32.20
2016,03,13,18,20,31.10
2016,03,13,18,21,29.50
2016,03,13,18,22,31.60
2016,03,13,18,23,33.80
2016,03,13,18,24,24.00